Temperature
29 30 30 31 31 31 31 30 30 30 29 29 29 29 28 28 27 27 26 25 24 23 22 21 21 20 20 20 19 19 19 18 18 17 17 17 16 17 17 16 16 16 16 16
28 29 31 31 31 31 31 31 31 30 30 30 30 29 28 27 27 26 26 25 23 22 21 21 20 20 19 19 19 18 18 18 17 17 17 16 16 16 16 16 16 16 16 16
28 29 30 29 31 31 31 31 31 30 30 30 30 29 28 27 26 25 25 24 23 22 21 20 20 19 19 19 18 18 17 17 17 16 16 16 16 16 16 16 15 15 15 15
28 28 27 30 32 32 31 31 31 30 30 30 29 28 27 26 25 24 24 23 22 22 21 20 19 19 18 18 18 17 17 17 16 16 16 16 16 15 15 15 15 15 15 15
27 27 28 30 31 31 30 30 30 30 29 29 29 27 26 25 24 23 23 22 21 21 20 20 19 18 18 18 17 17 17 16 16 16 16 15 15 15 14 14 14 14 14 14
26 26 26 28 31 31 30 28 30 30 29 29 28 27 26 24 24 23 22 22 21 20 20 19 18 18 18 18 17 17 16 16 16 15 15 15 15 14 14 14 14 14 14 14
26 26 27 29 30 30 28 27 28 29 28 28 27 26 25 24 23 22 21 21 20 20 19 19 18 18 17 17 17 16 16 15 15 15 15 15 15 14 14 14 14 14 14 14
26 25 26 28 29 28 27 27 28 28 27 27 26 25 24 23 22 21 21 20 20 19 19 18 17 17 17 16 16 16 15 15 15 15 14 14 14 14 14 14 14 14 14 14
26 26 26 27 27 26 26 26 26 26 26 26 25 24 23 22 21 21 20 20 19 19 18 17 17 17 16 16 16 15 15 15 15 14 14 14 14 14 14 14 14 13 13 13
25 26 26 26 26 26 26 26 26 25 25 25 24 23 22 22 21 20 20 19 19 18 17 17 16 16 16 16 15 15 15 14 14 14 14 14 14 14 13 13 13 13 13 13
24 25 25 25 25 25 25 25 25 25 25 24 23 23 22 21 20 20 19 19 18 17 17 16 16 16 15 15 15 14 14 14 14 14 14 14 14 14 13 13 13 13 13 13
24 24 24 24 24 24 24 24 24 24 24 23 23 22 21 20 19 19 18 18 17 17 16 16 15 15 15 14 14 14 14 14 14 14 14 14 13 13 13 13 13 13 13 12
23 23 23 23 23 23 23 23 23 23 23 22 22 21 20 19 19 18 17 17 17 16 16 15 15 14 14 14 14 14 14 14 14 14 13 13 13 13 13 13 13 13 12 12
22 22 22 22 22 22 22 23 23 22 22 21 21 20 19 19 18 17 17 16 16 16 15 15 15 14 14 14 14 13 13 14 13 13 13 13 13 13 13 12 12 12 12 12
21 21 21 22 22 22 22 22 22 21 21 20 20 19 19 18 17 17 16 16 16 16 15 15 14 14 14 14 13 13 13 13 13 13 13 13 13 13 12 12 12 12 11 11
20 21 21 21 21 21 21 21 21 21 20 20 19 18 18 17 17 16 16 16 15 15 15 14 14 14 14 13 13 13 13 13 13 13 13 13 13 12 12 12 12 11 11 11
20 20 20 21 21 21 21 21 20 20 19 19 18 18 17 17 16 16 16 15 15 15 14 14 14 14 13 13 13 13 13 13 13 13 13 13 12 12 12 12 11 11 11 11
19 20 20 20 20 20 20 20 20 19 18 18 17 17 17 16 16 16 15 15 15 14 14 14 14 13 13 13 13 13 13 13 13 12 12 12 12 12 11 11 11 11 11 11
19 19 19 19 19 19 19 19 19 19 18 17 17 17 16 16 16 15 15 15 14 14 14 14 14 13 13 13 13 13 13 13 12 12 12 12 12 12 11 11 11 11 11 10
19 19 19 19 19 19 19 18 18 18 17 17 16 16 16 16 15 15 15 14 14 14 14 14 13 13 13 13 13 12 13 12 12 12 12 12 11 11 11 11 11 10 10 10
18 18 18 18 18 18 18 17 17 17 17 16 16 16 16 15 15 15 14 14 14 14 14 13 13 13 13 12 12 12 12 12 12 12 12 12 11 11 11 11 10 10 10 10
17 17 17 17 17 17 17 17 16 16 16 16 16 15 15 15 15 15 14 14 14 14 14 13 13 13 12 12 12 12 12 12 12 12 11 11 11 11 11 10 10 10 9 9
16 16 16 16 16 16 16 16 15 15 15 15 15 15 15 15 15 14 14 14 14 13 13 13 13 13 12 12 12 12 12 12 12 11 11 11 11 11 10 10 10 10 9 9
15 15 15 15 15 15 15 15 15 15 15 15 15 14 14 14 14 14 14 14 13 13 13 13 13 12 12 12 12 12 12 12 11 11 11 11 11 10 10 10 10 9 9 9
15 15 15 15 15 15 15 15 15 15 14 15 14 14 14 14 14 14 14 14 13 13 13 13 13 12 12 12 12 12 11 11 11 11 11 11 10 10 10 10 9 9 9 9
14 15 15 15 15 15 15 15 15 15 15 14 14 14 14 14 14 14 14 13 13 13 13 12 12 12 12 12 11 11 11 11 11 11 11 10 10 10 10 9 9 9 9 8
14 15 15 15 15 15 15 15 15 15 14 14 14 14 14 14 14 13 13 13 13 13 13 12 12 12 12 11 11 11 11 11 11 10 10 10 10 10 9 9 9 8 8 8
Wind_Speed
12 12 12 13 11 10 10 10 10 6 4 4 5 7 7 9 9 9 10 9 9 8 7 6 6 5 4 4 4 4 4 3 3 3 3 3 3 3 3 3 2 2 2 2
12 14 13 12 10 9 9 9 8 6 3 3 5 6 9 9 8 8 9 9 9 8 8 6 6 5 4 4 4 5 4 3 3 3 3 3 2 3 3 2 2 2 2 2
11 11 11 12 9 8 7 7 6 4 3 4 5 7 8 8 7 6 8 9 9 7 7 6 5 4 4 4 5 4 4 4 4 4 4 3 3 3 2 2 2 2 2 2
9 10 12 9 7 8 7 6 5 2 3 4 5 7 7 8 7 5 7 8 7 7 7 7 6 5 4 5 5 5 4 4 3 3 3 2 3 3 2 2 2 2 2 2
8 10 11 9 7 7 6 5 3 2 2 3 6 7 7 8 8 5 6 8 7 7 8 7 6 5 5 5 5 4 3 3 3 2 2 2 2 2 2 2 2 2 2 1
9 10 10 7 6 4 4 5 3 1 2 3 4 4 6 9 10 8 6 7 7 7 8 7 5 5 4 4 4 3 3 2 2 2 2 2 1 2 2 2 2 2 2 2
11 11 8 7 6 4 5 3 1 0 3 3 3 4 8 10 9 8 8 7 7 7 7 6 5 5 4 3 3 3 3 3 2 2 1 0 1 1 1 2 2 2 2 2
9 10 7 5 3 2 2 3 2 1 2 3 6 9 11 11 9 8 8 7 7 7 7 6 5 5 4 4 4 3 3 2 2 1 1 1 1 1 1 2 2 3 2 2
4 4 1 4 3 2 2 2 2 3 4 4 7 10 10 10 9 8 8 7 6 7 7 6 5 5 4 4 3 2 2 1 1 1 1 1 1 2 2 2 2 2 2 2
3 2 3 4 4 4 2 2 3 3 4 5 6 9 9 8 8 7 7 7 6 7 6 5 5 4 4 4 3 2 1 1 0 0 1 1 1 2 2 2 3 3 3 3
5 4 4 2 3 3 3 3 3 3 3 4 6 8 8 8 6 5 6 6 6 5 5 5 5 4 4 3 2 1 1 1 1 1 1 1 1 2 2 2 2 2 3 3
5 3 3 2 2 1 1 1 1 3 4 5 6 7 7 7 6 6 6 6 6 5 5 5 5 4 3 3 2 1 1 1 2 1 1 1 1 2 5 3 2 2 2 2
4 3 2 3 4 3 1 0 1 3 3 4 5 6 7 7 6 5 5 6 6 6 5 4 4 4 3 2 1 0 1 1 1 1 1 2 1 1 1 2 2 1 1 2
3 2 1 2 2 2 1 1 1 3 4 5 5 7 7 7 7 6 4 5 6 5 5 4 4 3 2 2 1 1 2 1 2 1 2 2 1 1 1 1 2 2 2 2
4 3 3 2 1 1 1 1 3 3 5 5 5 6 6 6 6 6 5 5 5 5 5 4 3 2 1 1 1 1 1 1 1 2 2 1 2 2 2 2 2 1 1 2
5 4 3 3 2 2 2 2 2 4 5 5 5 6 6 6 6 5 5 5 5 4 4 3 3 2 1 0 1 1 1 1 2 3 2 2 1 2 2 2 2 2 2 2
4 3 3 4 4 4 4 3 2 3 4 5 5 6 6 6 5 5 5 5 4 4 4 3 2 1 1 1 1 2 1 1 2 3 2 2 2 2 2 3 3 3 2 2
4 4 4 4 4 3 3 3 3 4 4 4 5 5 6 6 5 5 5 4 4 4 3 3 2 1 1 1 2 3 2 1 1 1 2 2 2 2 3 2 3 3 2 1
4 5 4 4 4 4 3 3 3 4 5 5 5 5 4 5 4 4 4 4 4 4 3 3 3 2 1 0 2 2 2 2 1 1 2 1 2 2 2 2 3 3 2 2
3 3 3 3 3 3 3 3 3 4 4 5 5 4 4 4 4 4 4 4 3 3 3 4 4 2 2 1 2 2 2 2 1 1 2 2 2 2 2 2 3 3 3 3
2 2 2 2 2 2 2 3 3 4 4 4 4 4 4 4 4 4 4 4 4 3 3 4 4 2 1 0 2 2 1 2 2 2 2 2 2 2 3 3 2 2 3 2
1 1 0 1 2 1 1 2 2 2 3 3 3 3 4 4 4 4 4 3 4 5 3 3 2 3 1 1 2 2 2 2 3 2 2 2 2 2 2 2 2 2 2 2
1 1 1 1 1 2 2 2 2 2 2 2 2 3 3 3 3 3 3 3 3 4 3 2 4 5 1 2 3 2 2 2 2 2 2 2 2 2 2 2 2 2 2 2
2 2 1 1 1 2 2 2 2 2 2 2 3 3 2 2 2 2 2 5 5 5 3 4 7 5 4 3 3 2 2 2 2 1 1 2 2 2 2 2 2 2 2 2
2 1 1 1 1 2 2 2 2 2 2 2 2 2 2 2 1 1 2 4 6 5 3 5 7 7 5 4 2 2 1 1 2 2 1 2 2 2 2 2 2 2 2 2
1 1 0 1 1 1 1 2 2 1 1 1 2 2 2 2 2 2 2 4 4 4 3 3 4 5 4 2 2 2 2 1 1 1 2 2 2 2 1 2 2 2 2 2
2 1 1 2 1 1 1 1 1 1 1 1 1 1 2 2 2 2 2 2 2 3 2 2 3 3 3 2 2 1 1 1 1 1 1 2 2 2 2 2 2 1 1 2
Wind_Direction
271 272 265 265 259 252 255 262 270 258 220 185 176 170 146 136 140 144 142 142 135 133 129 126 118 108 100 94 87 85 90 87 87 80 69 57 40 36 36 25 24 16 343 344
269 268 266 269 266 258 257 262 266 256 224 167 162 151 139 140 142 145 145 143 138 135 129 120 118 114 114 103 93 90 88 81 75 63 59 52 36 36 29 24 18 3 337 345
262 265 271 262 263 263 264 270 274 256 205 155 159 141 134 136 136 139 141 137 134 133 125 122 117 104 112 109 99 91 81 73 70 61 58 42 26 40 27 18 8 347 343 353
260 269 259 261 265 267 265 269 280 253 174 168 154 131 128 127 131 143 134 128 135 136 128 120 113 108 107 104 99 90 82 77 78 68 60 45 38 31 13 3 347 342 329 326
258 257 260 264 261 254 253 261 277 228 175 171 134 124 121 118 123 127 119 121 127 128 125 118 113 108 107 108 105 96 87 82 76 65 54 48 36 17 353 342 329 310 315 346
254 261 260 278 292 262 239 255 277 251 155 155 165 172 143 126 125 125 116 120 123 120 118 115 110 109 112 110 100 89 78 69 64 60 41 30 32 3 350 329 313 315 331 342
246 255 261 292 316 287 245 269 350 53 137 154 148 128 119 121 120 129 126 123 120 112 110 109 111 115 114 100 86 78 76 66 56 54 33 79 54 360 329 315 322 317 308 303
242 249 259 328 308 274 12 23 15 69 107 115 106 112 119 127 130 133 125 124 121 115 113 110 115 116 110 91 83 80 80 68 47 11 325 29 11 320 299 291 294 301 300 299
246 244 316 332 359 42 45 64 59 69 91 102 114 116 121 127 132 130 127 127 121 115 111 110 112 111 108 94 91 84 73 57 24 356 354 13 337 322 307 305 313 321 324 325
272 268 312 334 356 18 35 67 75 84 110 111 120 127 127 125 124 127 130 130 126 124 119 112 109 102 98 97 95 89 82 68 350 300 326 9 343 337 345 345 337 339 340 341
260 265 269 291 2 22 33 36 63 73 88 117 124 130 129 125 122 126 129 126 125 123 124 117 107 99 101 100 97 70 31 356 305 309 313 324 337 352 347 20 24 353 347 346
268 273 285 320 335 353 27 16 63 89 98 112 119 127 125 127 126 127 127 122 118 117 120 117 115 109 103 102 93 56 350 323 317 324 342 326 329 11 29 26 54 65 25 1
294 313 336 331 322 325 5 219 111 96 108 119 118 121 118 120 120 118 127 127 123 121 119 116 111 106 102 106 112 247 282 280 291 303 300 295 300 318 349 11 21 3 327 352
329 0 343 300 284 270 264 194 113 109 114 112 114 120 123 124 124 121 125 128 131 129 124 119 114 112 115 143 171 238 267 259 288 294 288 286 298 301 296 313 335 337 311 260
298 277 258 258 256 251 256 186 143 137 130 126 127 127 127 128 128 127 131 132 131 130 125 123 120 113 119 170 184 234 278 351 312 301 300 312 314 303 305 317 311 298 321 313
269 253 248 237 233 234 228 199 170 152 141 138 139 134 134 129 126 132 141 137 143 143 136 129 122 126 142 184 277 254 206 256 291 296 293 291 308 324 332 325 315 319 326 342
259 242 237 232 232 229 222 212 191 156 147 149 141 132 135 136 138 145 151 149 143 136 138 139 140 154 185 212 277 281 254 211 241 288 310 342 354 346 341 332 329 325 345 31
248 238 229 233 242 238 231 210 178 157 156 152 142 143 150 154 158 158 162 155 148 148 147 142 140 174 158 79 315 306 314 313 285 320 350 2 344 326 321 322 320 330 1 6
237 231 228 222 226 221 224 208 183 160 154 153 165 165 156 155 153 156 158 162 167 166 156 136 141 166 165 82 313 271 290 300 358 22 334 327 309 317 322 326 337 340 343 356
218 220 229 229 224 220 204 172 160 157 160 162 163 161 164 166 165 166 163 171 182 168 147 146 164 191 194 136 294 283 293 320 348 338 313 308 314 316 320 335 344 337 340 345
175 200 218 217 183 181 172 156 157 160 160 170 177 178 171 164 166 168 174 179 152 143 161 169 179 189 165 131 251 276 297 318 313 303 300 312 319 320 325 336 336 334 339 339
148 179 199 165 154 141 125 131 143 165 176 181 180 170 160 164 173 175 172 174 162 152 171 190 173 120 95 276 264 277 286 293 300 306 318 321 308 304 315 330 328 326 333 333
99 84 85 92 127 119 103 109 122 136 137 156 162 174 179 180 197 195 184 169 161 159 183 181 141 136 174 247 266 262 272 286 293 297 301 296 298 313 321 317 313 315 321 325
96 93 81 99 129 132 136 128 116 134 153 173 163 157 178 184 186 194 163 150 152 164 189 161 158 174 216 243 260 265 271 276 280 289 298 305 315 310 307 310 311 313 312 308
97 96 94 116 163 152 133 144 162 164 169 173 173 170 183 165 174 176 157 143 149 166 190 181 185 197 217 254 253 253 263 277 288 311 317 319 308 305 319 333 337 324 310 313
154 202 166 209 199 182 184 188 188 177 174 187 179 158 148 138 146 161 160 152 156 174 194 186 189 205 220 222 233 256 269 265 269 294 310 314 319 330 336 334 343 341 337 348
240 235 213 233 239 219 217 204 204 199 190 170 157 176 159 156 182 181 171 161 161 167 184 194 194 196 197 205 216 235 272 304 327 319 314 317 332 342 349 351 349 351 7 16
Height
1461 1455 1453 1454 1452 1451 1455 1457 1465 1463 1463 1460 1460 1462 1465 1468 1472 1476 1480 1484 1486 1489 1491 1493 1494 1496 1497 1498 1498 1498 1499 1499 1499 1499 1499 1499 1498 1498 1498 1497 1496 1496 1496 1496
1465 1456 1451 1452 1449 1449 1450 1450 1453 1455 1458 1454 1458 1461 1465 1469 1473 1476 1479 1483 1486 1489 1490 1492 1493 1494 1496 1497 1498 1498 1498 1499 1499 1499 1499 1498 1498 1497 1497 1496 1495 1495 1494 1494
1469 1457 1456 1462 1450 1450 1449 1447 1450 1457 1456 1454 1457 1461 1465 1469 1473 1477 1480 1482 1485 1488 1490 1492 1493 1494 1495 1497 1497 1498 1498 1498 1498 1498 1498 1497 1497 1496 1495 1495 1494 1493 1492 1492
1467 1466 1479 1455 1440 1441 1445 1446 1445 1448 1450 1454 1457 1462 1466 1470 1474 1478 1480 1482 1485 1487 1489 1491 1492 1494 1495 1496 1497 1497 1498 1498 1497 1497 1497 1497 1496 1495 1494 1493 1492 1491 1490 1490
1469 1473 1466 1451 1441 1441 1447 1450 1446 1449 1451 1454 1456 1462 1468 1472 1475 1479 1480 1482 1485 1487 1489 1491 1492 1493 1495 1496 1496 1497 1497 1497 1497 1497 1496 1496 1495 1494 1493 1492 1491 1491 1490 1489
1468 1475 1475 1457 1441 1440 1446 1456 1449 1449 1451 1455 1459 1464 1470 1472 1476 1480 1482 1484 1486 1487 1489 1491 1492 1493 1494 1495 1496 1496 1497 1497 1496 1496 1495 1495 1494 1494 1492 1491 1491 1490 1489 1488
1467 1471 1462 1449 1444 1444 1460 1462 1451 1452 1454 1457 1460 1464 1469 1472 1476 1479 1481 1484 1486 1487 1489 1491 1492 1493 1494 1495 1495 1496 1496 1496 1496 1495 1495 1495 1494 1493 1492 1491 1490 1489 1488 1487
1463 1471 1469 1449 1448 1452 1457 1454 1454 1455 1457 1460 1462 1465 1469 1473 1477 1480 1482 1484 1486 1487 1489 1490 1492 1493 1493 1494 1495 1495 1495 1495 1495 1495 1495 1494 1493 1492 1491 1490 1489 1488 1487 1486
1458 1461 1456 1452 1453 1454 1454 1455 1457 1458 1460 1462 1464 1467 1471 1474 1477 1479 1482 1484 1486 1487 1489 1490 1491 1492 1493 1493 1494 1494 1494 1494 1494 1494 1493 1493 1492 1491 1490 1489 1489 1488 1486 1485
1455 1453 1454 1454 1454 1455 1456 1457 1458 1459 1461 1463 1466 1469 1471 1474 1477 1480 1482 1484 1486 1487 1489 1490 1491 1492 1492 1493 1493 1493 1493 1493 1493 1493 1492 1492 1491 1491 1489 1489 1488 1487 1486 1485
1455 1455 1455 1455 1456 1457 1458 1458 1459 1461 1463 1465 1466 1469 1472 1475 1478 1481 1483 1484 1486 1487 1488 1489 1490 1491 1492 1492 1492 1492 1492 1492 1492 1492 1491 1491 1490 1490 1489 1488 1487 1486 1484 1483
1456 1455 1455 1456 1457 1458 1459 1460 1461 1462 1464 1466 1468 1471 1473 1476 1479 1481 1483 1484 1485 1487 1488 1488 1489 1490 1491 1492 1492 1492 1492 1492 1492 1492 1491 1490 1489 1489 1488 1487 1486 1485 1483 1482
1455 1454 1456 1457 1458 1459 1460 1461 1462 1463 1465 1467 1470 1472 1474 1476 1479 1481 1483 1483 1485 1486 1488 1488 1488 1490 1490 1491 1491 1491 1491 1491 1491 1491 1490 1489 1488 1487 1486 1485 1484 1483 1482 1480
1455 1456 1458 1459 1460 1461 1461 1461 1462 1464 1466 1468 1470 1472 1474 1476 1479 1480 1483 1483 1485 1487 1487 1488 1489 1490 1490 1490 1490 1490 1490 1490 1490 1490 1489 1488 1487 1486 1485 1484 1482 1481 1480 1479
1456 1457 1458 1459 1460 1461 1461 1462 1463 1465 1467 1469 1471 1472 1474 1476 1478 1480 1483 1484 1485 1486 1487 1488 1488 1489 1489 1490 1489 1489 1489 1489 1489 1488 1488 1487 1486 1485 1484 1483 1481 1480 1478 1477
1456 1456 1457 1458 1459 1460 1461 1462 1463 1465 1467 1469 1471 1473 1474 1476 1478 1480 1482 1484 1485 1485 1486 1487 1487 1488 1488 1488 1488 1488 1488 1488 1487 1487 1487 1486 1485 1484 1483 1482 1480 1479 1478 1476
1455 1455 1456 1457 1459 1460 1461 1462 1463 1465 1467 1469 1471 1472 1474 1476 1477 1479 1481 1482 1483 1484 1485 1486 1486 1487 1487 1487 1487 1487 1487 1487 1486 1485 1485 1484 1483 1482 1481 1480 1479 1478 1477 1475
1454 1455 1456 1457 1459 1460 1461 1462 1463 1464 1467 1468 1469 1472 1473 1475 1476 1478 1479 1480 1481 1483 1484 1484 1485 1485 1486 1486 1486 1486 1486 1485 1485 1484 1484 1483 1481 1481 1480 1479 1478 1477 1475 1474
1453 1454 1455 1457 1458 1459 1460 1461 1462 1464 1465 1467 1469 1471 1472 1474 1475 1476 1478 1479 1480 1481 1482 1482 1483 1484 1484 1484 1484 1484 1484 1484 1483 1482 1482 1481 1480 1480 1479 1478 1477 1476 1475 1473
1452 1453 1454 1456 1457 1458 1459 1460 1461 1463 1465 1466 1468 1469 1471 1472 1474 1475 1476 1477 1478 1479 1479 1480 1481 1482 1482 1482 1482 1482 1482 1482 1482 1481 1481 1480 1480 1479 1478 1477 1476 1475 1474 1472
1452 1453 1454 1455 1456 1457 1458 1459 1460 1461 1463 1464 1466 1468 1469 1470 1472 1473 1474 1475 1476 1477 1478 1479 1479 1480 1480 1480 1480 1481 1481 1481 1480 1480 1479 1479 1478 1478 1477 1476 1475 1473 1472 1471
1452 1453 1453 1454 1455 1456 1457 1458 1459 1460 1462 1463 1464 1466 1467 1469 1470 1471 1472 1473 1474 1474 1475 1476 1477 1477 1478 1478 1479 1479 1479 1479 1479 1478 1478 1477 1476 1476 1475 1474 1473 1472 1471 1469
1452 1453 1454 1454 1455 1456 1457 1457 1458 1459 1460 1461 1463 1465 1466 1468 1469 1470 1471 1471 1472 1472 1473 1474 1475 1475 1476 1477 1477 1477 1477 1477 1477 1476 1476 1475 1475 1474 1473 1472 1471 1470 1469 1468
1453 1453 1454 1454 1455 1456 1456 1457 1458 1459 1460 1461 1463 1464 1465 1466 1467 1468 1469 1469 1470 1470 1471 1472 1472 1473 1474 1474 1474 1475 1475 1475 1475 1474 1474 1473 1473 1472 1471 1470 1470 1469 1467 1466
1453 1454 1454 1454 1455 1455 1456 1456 1457 1459 1459 1460 1461 1462 1464 1465 1466 1467 1467 1467 1468 1468 1469 1470 1470 1471 1471 1472 1472 1472 1472 1472 1472 1472 1472 1471 1471 1470 1469 1468 1468 1467 1466 1464
1453 1454 1454 1455 1455 1456 1456 1457 1457 1457 1458 1459 1460 1462 1462 1463 1464 1465 1466 1466 1466 1467 1467 1468 1468 1468 1469 1469 1469 1470 1470 1470 1470 1470 1470 1469 1469 1468 1467 1467 1466 1465 1464 1462
1453 1453 1454 1455 1455 1456 1456 1456 1457 1458 1458 1459 1460 1461 1461 1462 1463 1464 1464 1465 1465 1465 1465 1466 1466 1466 1466 1467 1467 1468 1468 1468 1468 1468 1468 1467 1467 1466 1466 1465 1464 1463 1461 1460